This demonstration page uses our WeatherBlox Daily Observations layout. Learn more.

Left ArrowRight Arrow

Hourly Observations for July 14, 2016

Temp ( °F °C ) Dew Point ( °F °C ) Humidity (%) Winds ( mph kmh ) Pressure ( in mb ) Visibility ( mi km ) Precip ( " mm )
12:53 am 00:53 Clear 71 21.7 66 18.9 84 84 SW 10 17 29.93 1014 10 16 N/A
1:53 am 01:53 Clear 71 21.7 67 19.4 87 87 SW 8 13 29.94 1014 10 16 N/A
2:53 am 02:53 Clear 70 21.1 67 19.4 90 90 SW 7 11 29.95 1014 10 16 N/A
3:53 am 03:53 Clear 70 21.1 66 18.9 87 87 WSW 7 11 29.94 1014 10 16 N/A
4:53 am 04:53 Clear 69 20.6 66 18.9 90 90 N N/A 29.93 1014 10 16 N/A
5:53 am 05:53 Clear 68 20 65 18.3 90 90 N N/A 29.92 1013 10 16 N/A
6:53 am 06:53 Sunny 67 19.4 64 17.8 91 91 N N/A 29.95 1014 10 16 N/A
7:53 am 07:53 Sunny 73 22.8 66 18.9 79 79 VRB 3 6 29.95 1014 10 16 N/A
8:53 am 08:53 Sunny 74 23.3 67 19.4 79 79 VRB 3 6 29.96 1015 10 16 N/A
9:53 am 09:53 Sunny 77 25 67 19.4 71 71 W 8 13 29.96 1015 10 16 N/A
10:53 am 10:53 Sunny 81 27.2 68 20 65 65 W 8 13 29.96 1015 10 16 N/A
11:53 am 11:53 Sunny 84 28.9 67 19.4 57 57 VRB 3 6 29.95 1014 10 16 N/A
12:53 pm 12:53 Sunny 86 30 68 20 55 55 VRB 6 9 29.96 1015 10 16 N/A
1:53 pm 13:53 Mostly Sunny 87 30.6 68 20 53 53 SW 7 11 29.94 1014 10 16 N/A
2:53 pm 14:53 Mostly Sunny 88 31.1 70 21.1 55 55 SW 8 13 29.92 1013 10 16 N/A
3:53 pm 15:53 Partly Cloudy 88 31.1 68 20 52 52 WSW 9 15 29.91 1013 10 16 N/A
4:53 pm 16:53 Mostly Cloudy 86 30 67 19.4 53 53 WNW 10 17 29.90 1013 10 16 N/A
5:53 pm 17:53 Mostly Cloudy 78 25.6 70 21.1 76 76 NW 14 22 29.93 1013 10 16 0.01 0.25
6:53 pm 18:53 Mostly Sunny 75 23.9 70 21.1 84 84 W 3 6 29.91 1013 10 16 0.01 0.25
7:53 pm 19:53 Sunny 74 23.3 71 21.7 91 91 N N/A 29.93 1014 10 16 N/A
8:53 pm 20:53 Sunny 75 23.9 69 20.6 82 82 N N/A 29.93 1014 10 16 N/A
9:53 pm 21:53 Clear 72 22.2 69 20.6 91 91 N N/A 29.95 1014 10 16 N/A
10:53 pm 22:53 Clear 70 21.1 68 20 93 93 N N/A 29.96 1015 10 16 N/A
11:53 pm 23:53 Clear 70 21.1 68 20 93 93 N N/A 29.97 1015 9 14 N/A

Powered by AerisWeather